AAL2 KLAX-KJFK

Flight info

Callsign AAL2
Flight time N/A
Altitude 31000
Route DOTSS2 CLEEE PKE HIDAT DILCO PUMPS DATME ZIGEE TOKIE SLN J96 AGENT COLIE BDF CGT GIJ EVOTE DAFLU J70 JHW Q476 WLKES PUCKY1
Aircraft A321/M-SDE3FGHIRWY/LB1

Departure

Time 2026-04-24 22:19
Airport Los Angeles International Airport (KLAX)

Arrival

Time N/A
Airport John F. Kennedy International Airport (KJFK)
Time Latitude Longitude Altitude Speed Heading
2026-04-24 21:40 33.94154 -118.40948 93 ft 0 kts 262°
2026-04-24 22:07 33.94155 -118.40937 99 ft 4 kts 264°
2026-04-24 22:07 33.94157 -118.40904 92 ft 4 kts 268°
2026-04-24 22:07 33.94158 -118.40872 93 ft 4 kts 258°
2026-04-24 22:07 33.94168 -118.40847 91 ft 3 kts 207°
2026-04-24 22:08 33.94160 -118.40848 92 ft 4 kts 188°
2026-04-24 22:08 33.94134 -118.40843 93 ft 4 kts 167°
2026-04-24 22:08 33.94109 -118.40838 94 ft 2 kts 173°
2026-04-24 22:10 33.94108 -118.40838 94 ft 1 kts 173°
2026-04-24 22:11 33.94098 -118.40837 95 ft 2 kts 174°
2026-04-24 22:11 33.94077 -118.40834 93 ft 4 kts 173°
2026-04-24 22:11 33.94046 -118.40829 94 ft 5 kts 173°
2026-04-24 22:11 33.94008 -118.40824 94 ft 4 kts 172°
2026-04-24 22:12 33.94004 -118.40823 93 ft 0 kts 172°
2026-04-24 22:12 33.94002 -118.40823 95 ft 1 kts 172°
2026-04-24 22:12 33.93992 -118.40821 92 ft 2 kts 172°
2026-04-24 22:13 33.93970 -118.40818 95 ft 4 kts 172°
2026-04-24 22:13 33.93938 -118.40813 93 ft 5 kts 174°
2026-04-24 22:13 33.93900 -118.40797 94 ft 7 kts 145°
2026-04-24 22:13 33.93867 -118.40753 93 ft 8 kts 133°
2026-04-24 22:14 33.93822 -118.40722 95 ft 7 kts 134°
2026-04-24 22:14 33.93811 -118.40661 97 ft 8 kts 87°
2026-04-24 22:14 33.93822 -118.40553 95 ft 20 kts 82°
2026-04-24 22:14 33.93835 -118.40424 95 ft 20 kts 83°
2026-04-24 22:15 33.93856 -118.40218 96 ft 29 kts 83°
2026-04-24 22:15 33.93863 -118.40154 96 ft 29 kts 83°
2026-04-24 22:15 33.93888 -118.39908 97 ft 30 kts 83°
2026-04-24 22:15 33.93914 -118.39656 95 ft 31 kts 83°
2026-04-24 22:16 33.93939 -118.39397 95 ft 31 kts 83°
2026-04-24 22:16 33.93966 -118.39133 95 ft 32 kts 83°
2026-04-24 22:16 33.93994 -118.38868 94 ft 32 kts 83°
2026-04-24 22:16 33.94021 -118.38600 95 ft 32 kts 83°
2026-04-24 22:17 33.94045 -118.38372 96 ft 24 kts 82°
2026-04-24 22:17 33.94066 -118.38169 94 ft 25 kts 84°
2026-04-24 22:17 33.94072 -118.38026 93 ft 13 kts 112°
2026-04-24 22:17 33.93995 -118.38004 93 ft 10 kts 214°
2026-04-24 22:18 33.93980 -118.38062 94 ft 8 kts 262°
2026-04-24 22:18 33.93978 -118.38080 94 ft 8 kts 262°
2026-04-24 22:18 33.93959 -118.38263 98 ft 53 kts 262°
2026-04-24 22:18 33.93884 -118.38997 98 ft 122 kts 263°
2026-04-24 22:19 33.93759 -118.40234 150 ft 170 kts 261°
2026-04-24 22:19 33.93609 -118.41631 861 ft 168 kts 261°
2026-04-24 22:19 33.93450 -118.43043 1596 ft 173 kts 261°
2026-04-24 22:19 33.93294 -118.44558 2009 ft 191 kts 261°
2026-04-24 22:20 33.92924 -118.46153 2239 ft 211 kts 238°
2026-04-24 22:20 33.92008 -118.47659 2425 ft 236 kts 230°
2026-04-24 22:20 33.90891 -118.49210 2885 ft 252 kts 219°
2026-04-24 22:20 33.89313 -118.50166 3516 ft 260 kts 192°
2026-04-24 22:21 33.87494 -118.50401 4301 ft 264 kts 186°
2026-04-24 22:21 33.85662 -118.50574 5115 ft 266 kts 186°
2026-04-24 22:21 33.83795 -118.50747 5845 ft 270 kts 186°
2026-04-24 22:21 33.81897 -118.50924 6559 ft 275 kts 186°
2026-04-24 22:22 33.80009 -118.51102 7277 ft 277 kts 187°
2026-04-24 22:22 33.78074 -118.51286 7999 ft 280 kts 187°
2026-04-24 22:22 33.76125 -118.51472 8753 ft 283 kts 187°
2026-04-24 22:22 33.74146 -118.51299 9469 ft 291 kts 166°
2026-04-24 22:23 33.72332 -118.50158 10142 ft 301 kts 141°
2026-04-24 22:23 33.71004 -118.48151 10578 ft 319 kts 124°
2026-04-24 22:23 33.69833 -118.45776 10741 ft 342 kts 122°
2026-04-24 22:23 33.68620 -118.43203 11060 ft 357 kts 122°
2026-04-24 22:24 33.67416 -118.40618 11620 ft 364 kts 122°
2026-04-24 22:24 33.66234 -118.37888 12216 ft 372 kts 113°
2026-04-24 22:24 33.65691 -118.34823 12803 ft 381 kts 94°
2026-04-24 22:24 33.65607 -118.31624 13418 ft 386 kts 93°
2026-04-24 22:25 33.65543 -118.28384 13984 ft 391 kts 92°
2026-04-24 22:25 33.65480 -118.25095 14512 ft 396 kts 93°
2026-04-24 22:25 33.65415 -118.21782 15046 ft 400 kts 93°
2026-04-24 22:25 33.65344 -118.18408 15591 ft 405 kts 93°
2026-04-24 22:26 33.65269 -118.15014 16134 ft 409 kts 93°
2026-04-24 22:26 33.65191 -118.11572 16685 ft 414 kts 93°
2026-04-24 22:26 33.65110 -118.08146 17210 ft 419 kts 93°
2026-04-24 22:26 33.65024 -118.04619 17742 ft 423 kts 93°
2026-04-24 22:27 33.64940 -118.01063 18253 ft 428 kts 93°
2026-04-24 22:27 33.64854 -117.97466 18707 ft 433 kts 93°
2026-04-24 22:27 33.64767 -117.93838 19162 ft 437 kts 93°
2026-04-24 22:27 33.64678 -117.90163 19617 ft 441 kts 93°
2026-04-24 22:28 33.64588 -117.86455 20086 ft 445 kts 92°
2026-04-24 22:28 33.64496 -117.82771 20538 ft 449 kts 92°
2026-04-24 22:28 33.64626 -117.79005 20991 ft 454 kts 83°
2026-04-24 22:28 33.65228 -117.75273 21440 ft 458 kts 76°
2026-04-24 22:29 33.66697 -117.67748 22364 ft 466 kts 76°
2026-04-24 22:29 33.67430 -117.63944 22805 ft 470 kts 76°
2026-04-24 22:29 33.68168 -117.60096 23246 ft 474 kts 76°
2026-04-24 22:30 33.68910 -117.56213 23648 ft 478 kts 76°
2026-04-24 22:30 33.69656 -117.52308 23976 ft 481 kts 77°
2026-04-24 22:30 33.70400 -117.48381 24297 ft 484 kts 76°
2026-04-24 22:30 33.71147 -117.44427 24631 ft 487 kts 76°
2026-04-24 22:31 33.71902 -117.40446 25007 ft 489 kts 76°
2026-04-24 22:31 33.72652 -117.36501 25390 ft 491 kts 76°
2026-04-24 22:31 33.73415 -117.32483 25745 ft 493 kts 76°
2026-04-24 22:31 33.74179 -117.28457 26106 ft 496 kts 77°
2026-04-24 22:32 33.74857 -117.24376 26438 ft 499 kts 83°
2026-04-24 22:32 33.75086 -117.20215 26781 ft 499 kts 92°
2026-04-24 22:32 33.74997 -117.16031 27149 ft 501 kts 94°
2026-04-24 22:32 33.74903 -117.11835 27503 ft 504 kts 93°
2026-04-24 22:33 33.74816 -117.07620 27857 ft 506 kts 93°
2026-04-24 22:33 33.74732 -117.03385 28190 ft 508 kts 93°
2026-04-24 22:33 33.74646 -116.99123 28526 ft 510 kts 94°
2026-04-24 22:33 33.74560 -116.94896 28857 ft 512 kts 94°
2026-04-24 22:34 33.74469 -116.90615 29178 ft 514 kts 94°
2026-04-24 22:34 33.74372 -116.86302 29507 ft 516 kts 94°
2026-04-24 22:34 33.74270 -116.81978 29774 ft 519 kts 94°
2026-04-24 22:34 33.74164 -116.77620 30067 ft 522 kts 94°
2026-04-24 22:35 33.74059 -116.73256 30315 ft 524 kts 94°
2026-04-24 22:35 33.73958 -116.68858 30563 ft 527 kts 94°
2026-04-24 22:35 33.73858 -116.64451 30804 ft 529 kts 94°
2026-04-24 22:35 33.73777 -116.61041 30825 ft 525 kts 94°
2026-04-24 22:36 33.73560 -116.52320 30847 ft 522 kts 94°
2026-04-24 22:36 33.73336 -116.43662 30825 ft 521 kts 94°
2026-04-24 22:37 33.73107 -116.34950 30822 ft 521 kts 94°
2026-04-24 22:37 33.72873 -116.26254 30824 ft 521 kts 94°
2026-04-24 22:38 33.72631 -116.17556 30827 ft 521 kts 94°
2026-04-24 22:38 33.72955 -116.08862 30842 ft 523 kts 79°
2026-04-24 22:39 33.75210 -116.00647 30842 ft 521 kts 61°
2026-04-24 22:39 33.78533 -115.92908 30845 ft 521 kts 60°
2026-04-24 22:40 33.81850 -115.85146 30822 ft 522 kts 60°
2026-04-24 22:40 33.85161 -115.77362 30824 ft 522 kts 60°
2026-04-24 22:41 33.88470 -115.69563 30816 ft 523 kts 60°
2026-04-24 22:41 33.91229 -115.63062 30807 ft 523 kts 60°
2026-04-24 22:42 33.95077 -115.53995 30817 ft 523 kts 60°
2026-04-24 22:42 33.98373 -115.46181 30812 ft 523 kts 60°
2026-04-24 22:43 34.01662 -115.38362 30801 ft 523 kts 60°
2026-04-24 22:43 34.04946 -115.30531 30796 ft 524 kts 60°
2026-04-24 22:44 34.08216 -115.22721 30790 ft 525 kts 60°
2026-04-24 22:44 34.11521 -115.14841 30789 ft 526 kts 60°
2026-04-24 22:45 34.14816 -115.06958 30788 ft 526 kts 60°
2026-04-24 22:45 34.18111 -114.99052 30811 ft 526 kts 60°
2026-04-24 22:46 34.21383 -114.91183 30819 ft 526 kts 60°
2026-04-24 22:46 34.24661 -114.83269 30818 ft 526 kts 61°
2026-04-24 22:47 34.27920 -114.75367 30811 ft 525 kts 61°
2026-04-24 22:47 34.31181 -114.67458 30798 ft 525 kts 61°
2026-04-24 22:48 34.34432 -114.59556 30781 ft 524 kts 61°
2026-04-24 22:48 34.37682 -114.51659 30774 ft 524 kts 61°
2026-04-24 22:49 34.40927 -114.43748 30766 ft 524 kts 61°
2026-04-24 22:49 34.44165 -114.35835 30748 ft 524 kts 61°
2026-04-24 22:50 34.47394 -114.27911 30786 ft 524 kts 61°
2026-04-24 22:50 34.50600 -114.20017 30795 ft 525 kts 61°
2026-04-24 22:51 34.53828 -114.12062 30782 ft 525 kts 61°
2026-04-24 22:51 34.57051 -114.04111 30767 ft 525 kts 61°
2026-04-24 22:52 34.60272 -113.96151 30777 ft 525 kts 61°
2026-04-24 22:52 34.63476 -113.88181 30777 ft 525 kts 61°
2026-04-24 22:53 34.66662 -113.80252 30790 ft 525 kts 61°
2026-04-24 22:53 34.69868 -113.72260 30797 ft 525 kts 61°
2026-04-24 22:54 34.73069 -113.64272 30791 ft 526 kts 61°
2026-04-24 22:54 34.76267 -113.56257 30794 ft 527 kts 61°
2026-04-24 22:55 34.79443 -113.48285 30799 ft 527 kts 62°
2026-04-24 22:55 34.82650 -113.40211 30802 ft 527 kts 61°
2026-04-24 22:56 34.85816 -113.32222 30817 ft 527 kts 61°
2026-04-24 22:56 34.88456 -113.25537 30815 ft 526 kts 62°
2026-04-24 22:57 34.91628 -113.17495 30822 ft 527 kts 61°
2026-04-24 22:57 34.94841 -113.09356 31203 ft 535 kts 61°
2026-04-24 22:58 34.96451 -113.05261 31532 ft 535 kts 62°
2026-04-24 22:58 34.98061 -113.01159 31871 ft 537 kts 61°
2026-04-24 22:58 34.99674 -112.97041 32192 ft 538 kts 61°
2026-04-24 22:58 35.01265 -112.92971 32497 ft 538 kts 61°
2026-04-24 22:59 35.02878 -112.88840 32834 ft 539 kts 61°
2026-04-24 22:59 35.04487 -112.84712 33167 ft 539 kts 61°
2026-04-24 22:59 35.07707 -112.76432 33815 ft 539 kts 61°
2026-04-24 23:00 35.09316 -112.72296 34080 ft 539 kts 61°
2026-04-24 23:00 35.10926 -112.68160 34377 ft 539 kts 61°
2026-04-24 23:00 35.12510 -112.64082 34688 ft 538 kts 61°
2026-04-24 23:00 35.14114 -112.59944 34806 ft 538 kts 61°
2026-04-24 23:01 35.15712 -112.55815 34837 ft 537 kts 61°
2026-04-24 23:01 35.18895 -112.47564 34900 ft 536 kts 61°
2026-04-24 23:02 35.22074 -112.39309 34961 ft 536 kts 61°
2026-04-24 23:02 35.25248 -112.31049 35006 ft 536 kts 61°
2026-04-24 23:03 35.28416 -112.22779 35013 ft 536 kts 61°
2026-04-24 23:03 35.31566 -112.14542 35016 ft 536 kts 61°
2026-04-24 23:04 35.34723 -112.06258 35018 ft 537 kts 61°
2026-04-24 23:04 35.37876 -111.97960 34977 ft 537 kts 61°
2026-04-24 23:05 35.41026 -111.89644 34942 ft 538 kts 61°
2026-04-24 23:05 35.44174 -111.81314 34894 ft 537 kts 61°
2026-04-24 23:06 35.47301 -111.73035 34869 ft 537 kts 62°
2026-04-24 23:06 35.50453 -111.64685 34866 ft 537 kts 61°
2026-04-24 23:07 35.53588 -111.56352 34864 ft 537 kts 62°
2026-04-24 23:07 35.56702 -111.48006 34829 ft 537 kts 62°
2026-04-24 23:08 35.59801 -111.39699 34804 ft 537 kts 62°
2026-04-24 23:08 35.62911 -111.31345 34803 ft 538 kts 62°
2026-04-24 23:09 35.66019 -111.22981 34788 ft 538 kts 62°
2026-04-24 23:09 35.69130 -111.14610 34788 ft 538 kts 62°
2026-04-24 23:10 35.72232 -111.06214 34787 ft 539 kts 62°
2026-04-24 23:10 35.75320 -110.97816 34788 ft 539 kts 62°
2026-04-24 23:11 35.78398 -110.89442 34784 ft 540 kts 62°
2026-04-24 23:11 35.81490 -110.81012 34789 ft 540 kts 62°
2026-04-24 23:12 35.84567 -110.72577 34790 ft 539 kts 62°
2026-04-24 23:12 35.87645 -110.64143 34794 ft 539 kts 62°
2026-04-24 23:13 35.90720 -110.55704 34800 ft 539 kts 62°
2026-04-24 23:13 35.93777 -110.47264 34773 ft 538 kts 62°
2026-04-24 23:14 35.96820 -110.38818 34787 ft 538 kts 63°
2026-04-24 23:14 35.99844 -110.30440 34804 ft 538 kts 63°
2026-04-24 23:15 36.02891 -110.21993 34806 ft 538 kts 63°
2026-04-24 23:15 36.05925 -110.13533 34822 ft 538 kts 63°
2026-04-24 23:16 36.08958 -110.05058 34811 ft 539 kts 63°
2026-04-24 23:16 36.11991 -109.96578 34815 ft 539 kts 63°
2026-04-24 23:17 36.15007 -109.88087 34810 ft 539 kts 63°
2026-04-24 23:17 36.18002 -109.79633 34815 ft 538 kts 63°
2026-04-24 23:18 36.21008 -109.71133 34812 ft 539 kts 63°
2026-04-24 23:18 36.24014 -109.62620 34810 ft 539 kts 63°
2026-04-24 23:19 36.27009 -109.54107 34805 ft 539 kts 63°
2026-04-24 23:19 36.29989 -109.45625 34814 ft 539 kts 63°
2026-04-24 23:20 36.32965 -109.37092 34820 ft 539 kts 63°
2026-04-24 23:20 36.35941 -109.28557 34816 ft 538 kts 63°
2026-04-24 23:21 36.38914 -109.20019 34833 ft 538 kts 63°
2026-04-24 23:21 36.41875 -109.11476 34828 ft 538 kts 63°
2026-04-24 23:22 36.44838 -109.02926 34796 ft 538 kts 63°
2026-04-24 23:22 36.47784 -108.94420 34776 ft 538 kts 63°
2026-04-24 23:23 36.50727 -108.85890 34777 ft 539 kts 63°
2026-04-24 23:23 36.53669 -108.77292 34778 ft 539 kts 63°
2026-04-24 23:24 36.56601 -108.68696 34792 ft 539 kts 63°
2026-04-24 23:24 36.59519 -108.60133 34804 ft 538 kts 63°
2026-04-24 23:25 36.62433 -108.51554 34835 ft 538 kts 63°
2026-04-24 23:25 36.65354 -108.42959 34873 ft 538 kts 63°
2026-04-24 23:26 36.68271 -108.34367 34894 ft 538 kts 63°
2026-04-24 23:26 36.71157 -108.25814 34896 ft 538 kts 64°
2026-04-24 23:27 36.74050 -108.17200 34893 ft 538 kts 64°
2026-04-24 23:27 36.76937 -108.08576 34888 ft 538 kts 64°
2026-04-24 23:28 36.79823 -107.99948 34875 ft 538 kts 64°
2026-04-24 23:28 36.82703 -107.91327 34853 ft 538 kts 64°
2026-04-24 23:29 36.85549 -107.82758 34839 ft 538 kts 64°
2026-04-24 23:29 36.88404 -107.74125 34884 ft 538 kts 64°
2026-04-24 23:30 36.91261 -107.65477 34897 ft 538 kts 64°
2026-04-24 23:30 36.94111 -107.56822 34895 ft 538 kts 64°
2026-04-24 23:31 36.96959 -107.48160 34890 ft 538 kts 64°
2026-04-24 23:31 36.99796 -107.39500 34890 ft 538 kts 64°
2026-04-24 23:32 37.02636 -107.30797 34891 ft 538 kts 64°
2026-04-24 23:32 37.05446 -107.22185 34879 ft 537 kts 64°
2026-04-24 23:33 37.08262 -107.13510 34885 ft 537 kts 64°
2026-04-24 23:33 37.11068 -107.04828 34906 ft 538 kts 64°
2026-04-24 23:34 37.13863 -106.96138 34912 ft 537 kts 64°
2026-04-24 23:34 37.16661 -106.87455 34937 ft 537 kts 64°
2026-04-24 23:35 37.19457 -106.78773 34934 ft 536 kts 64°
2026-04-24 23:35 37.22242 -106.70063 34946 ft 537 kts 64°
2026-04-24 23:36 37.24985 -106.61408 34922 ft 534 kts 64°
2026-04-24 23:36 37.27737 -106.52750 34933 ft 533 kts 64°
2026-04-24 23:37 37.30491 -106.44085 34928 ft 534 kts 64°
2026-04-24 23:37 37.34576 -106.31161 34887 ft 532 kts 64°
2026-04-24 23:38 37.37293 -106.22517 34892 ft 531 kts 64°
2026-04-24 23:38 37.39999 -106.13881 34863 ft 530 kts 64°
2026-04-24 23:39 37.42697 -106.05244 34849 ft 530 kts 64°
2026-04-24 23:39 37.45391 -105.96601 34846 ft 532 kts 64°
2026-04-24 23:40 37.48084 -105.87927 34917 ft 532 kts 64°
2026-04-24 23:40 37.50778 -105.79240 34916 ft 533 kts 64°
2026-04-24 23:41 37.53477 -105.70524 34895 ft 534 kts 64°
2026-04-24 23:41 37.56150 -105.61850 34880 ft 534 kts 64°
2026-04-24 23:42 37.58829 -105.53087 34861 ft 535 kts 64°
2026-04-24 23:42 37.61498 -105.44326 34835 ft 535 kts 65°
2026-04-24 23:43 37.64166 -105.35577 34833 ft 534 kts 65°
2026-04-24 23:43 37.66387 -105.28294 34826 ft 534 kts 65°
2026-04-24 23:44 37.69467 -105.18153 34808 ft 531 kts 64°
2026-04-24 23:44 37.72094 -105.09465 34809 ft 529 kts 65°
2026-04-24 23:45 37.74268 -105.02253 34770 ft 528 kts 65°
2026-04-24 23:45 37.77308 -104.92125 34757 ft 526 kts 65°
2026-04-24 23:46 37.79462 -104.84932 34752 ft 526 kts 65°
2026-04-24 23:46 37.82048 -104.76251 34731 ft 526 kts 65°
2026-04-24 23:47 37.84630 -104.67560 34734 ft 526 kts 65°
2026-04-24 23:47 37.87184 -104.58931 34701 ft 526 kts 65°
2026-04-24 23:48 37.89754 -104.50259 34676 ft 526 kts 65°
2026-04-24 23:48 37.92321 -104.41578 34688 ft 526 kts 65°
2026-04-24 23:49 37.94875 -104.32875 34669 ft 527 kts 65°
2026-04-24 23:49 37.97419 -104.24156 34674 ft 527 kts 65°
2026-04-24 23:50 37.99958 -104.15448 34684 ft 527 kts 65°
2026-04-24 23:50 38.02506 -104.06735 34679 ft 527 kts 65°
2026-04-24 23:51 38.05024 -103.98072 34678 ft 527 kts 65°
2026-04-24 23:51 38.07540 -103.89350 34688 ft 524 kts 66°
2026-04-24 23:52 38.10038 -103.80660 34722 ft 523 kts 65°
2026-04-24 23:52 38.12529 -103.71974 34743 ft 523 kts 65°
2026-04-24 23:53 38.15022 -103.63263 34759 ft 524 kts 65°
2026-04-24 23:53 38.17498 -103.54615 34764 ft 524 kts 65°
2026-04-24 23:54 38.19980 -103.45890 34760 ft 524 kts 65°
2026-04-24 23:54 38.22447 -103.37173 34744 ft 524 kts 65°
2026-04-24 23:55 38.24913 -103.28444 34728 ft 524 kts 65°
2026-04-24 23:55 38.27374 -103.19703 34714 ft 524 kts 65°
2026-04-24 23:56 38.29830 -103.10974 34720 ft 524 kts 65°
2026-04-24 23:56 38.32264 -103.02295 34721 ft 523 kts 65°
2026-04-24 23:57 38.34698 -102.93554 34724 ft 524 kts 65°
2026-04-24 23:57 38.37130 -102.84798 34733 ft 523 kts 66°
2026-04-24 23:58 38.39553 -102.76041 34745 ft 523 kts 66°
2026-04-24 23:58 38.41970 -102.67292 34736 ft 523 kts 66°
2026-04-24 23:59 38.44382 -102.58537 34783 ft 523 kts 66°
2026-04-24 23:59 38.46784 -102.49772 34735 ft 523 kts 66°
2026-04-25 00:00 38.49176 -102.41010 34740 ft 523 kts 66°
2026-04-25 00:00 38.51552 -102.32297 34749 ft 522 kts 66°
2026-04-25 00:01 38.53928 -102.23525 34764 ft 521 kts 66°
2026-04-25 00:01 38.56290 -102.14777 34773 ft 520 kts 66°
2026-04-25 00:02 38.58648 -102.06040 34771 ft 520 kts 66°
2026-04-25 00:02 38.60996 -101.97310 34781 ft 519 kts 67°
2026-04-25 00:03 38.63310 -101.88649 34783 ft 517 kts 67°
2026-04-25 00:03 38.65636 -101.79927 34780 ft 516 kts 67°
2026-04-25 00:04 38.67949 -101.71238 34786 ft 515 kts 67°
2026-04-25 00:04 38.70247 -101.62550 34782 ft 514 kts 67°
2026-04-25 00:05 38.72539 -101.53879 34789 ft 513 kts 67°
2026-04-25 00:05 38.74808 -101.45286 34793 ft 512 kts 67°
2026-04-25 00:06 38.77079 -101.36640 34789 ft 511 kts 67°
2026-04-25 00:06 38.79343 -101.27974 34816 ft 512 kts 67°
2026-04-25 00:07 38.81593 -101.19311 34822 ft 512 kts 67°
2026-04-25 00:07 38.83842 -101.10636 34808 ft 512 kts 67°
2026-04-25 00:08 38.86090 -101.01948 34813 ft 513 kts 67°
2026-04-25 00:08 38.88317 -100.93311 34822 ft 513 kts 67°
2026-04-25 00:09 38.90559 -100.84613 34829 ft 513 kts 68°
2026-04-25 00:09 38.92791 -100.75908 34830 ft 513 kts 68°
2026-04-25 00:10 38.95010 -100.67191 34831 ft 513 kts 68°
2026-04-25 00:10 38.97217 -100.58474 34828 ft 513 kts 68°
2026-04-25 00:11 38.99421 -100.49760 34836 ft 512 kts 68°
2026-04-25 00:11 39.01608 -100.41128 34835 ft 511 kts 68°
2026-04-25 00:12 39.03806 -100.32409 34834 ft 511 kts 68°
2026-04-25 00:12 39.05987 -100.23711 34836 ft 511 kts 68°
2026-04-25 00:13 39.08158 -100.14999 34844 ft 510 kts 68°
2026-04-25 00:13 39.10318 -100.06300 34853 ft 509 kts 68°
2026-04-25 00:14 39.12459 -99.97667 34861 ft 509 kts 68°
2026-04-25 00:14 39.14609 -99.88979 34857 ft 508 kts 68°
2026-04-25 00:15 39.16752 -99.80270 34890 ft 508 kts 69°
2026-04-25 00:15 39.18858 -99.71654 34884 ft 506 kts 70°
2026-04-25 00:16 39.20967 -99.62995 34874 ft 504 kts 70°
2026-04-25 00:16 39.23067 -99.54374 34869 ft 503 kts 69°
2026-04-25 00:17 39.25161 -99.45771 34860 ft 502 kts 70°
2026-04-25 00:17 39.27230 -99.37206 34869 ft 502 kts 70°
2026-04-25 00:18 39.29306 -99.28610 34864 ft 501 kts 70°
2026-04-25 00:18 39.31366 -99.20011 34870 ft 501 kts 70°
2026-04-25 00:19 39.33416 -99.11418 34864 ft 501 kts 70°
2026-04-25 00:19 39.35461 -99.02818 34880 ft 500 kts 70°
2026-04-25 00:20 39.37501 -98.94215 34873 ft 499 kts 70°
2026-04-25 00:20 39.39533 -98.85639 34884 ft 498 kts 70°
2026-04-25 00:21 39.41554 -98.77080 34873 ft 497 kts 70°
2026-04-25 00:21 39.43547 -98.68576 34879 ft 497 kts 71°
2026-04-25 00:22 39.45540 -98.60017 34885 ft 497 kts 71°
2026-04-25 00:22 39.47531 -98.51460 34880 ft 496 kts 71°
2026-04-25 00:23 39.49522 -98.42916 34887 ft 496 kts 71°
2026-04-25 00:23 39.51508 -98.34361 34900 ft 495 kts 71°
2026-04-25 00:24 39.53473 -98.25806 34894 ft 495 kts 71°
2026-04-25 00:24 39.55430 -98.17270 34889 ft 494 kts 71°
2026-04-25 00:25 39.57387 -98.08729 34889 ft 493 kts 71°
2026-04-25 00:25 39.59330 -98.00204 34890 ft 493 kts 71°
2026-04-25 00:26 39.61268 -97.91685 34887 ft 493 kts 71°
2026-04-25 00:26 39.63183 -97.83204 34888 ft 493 kts 72°
2026-04-25 00:27 39.65095 -97.74662 34889 ft 493 kts 72°
2026-04-25 00:27 39.67016 -97.66106 34890 ft 493 kts 72°
2026-04-25 00:28 39.68932 -97.57532 34887 ft 493 kts 72°
2026-04-25 00:28 39.70821 -97.49037 34895 ft 493 kts 72°
2026-04-25 00:29 39.72732 -97.40432 34898 ft 493 kts 72°
2026-04-25 00:29 39.74628 -97.31842 34899 ft 494 kts 72°
2026-04-25 00:30 39.76520 -97.23267 34905 ft 494 kts 72°
2026-04-25 00:30 39.78415 -97.14681 34908 ft 494 kts 72°
2026-04-25 00:31 39.80286 -97.06135 34915 ft 494 kts 72°
2026-04-25 00:31 39.82145 -96.97523 34942 ft 494 kts 72°
2026-04-25 00:32 39.83694 -96.90363 34935 ft 494 kts 72°
2026-04-25 00:32 39.85552 -96.81747 34924 ft 494 kts 73°
2026-04-25 00:33 39.87401 -96.73134 34923 ft 494 kts 73°
2026-04-25 00:33 39.89234 -96.64557 34922 ft 494 kts 73°
2026-04-25 00:34 39.91075 -96.55926 34926 ft 493 kts 73°
2026-04-25 00:34 39.92912 -96.47311 34928 ft 494 kts 73°
2026-04-25 00:35 39.94745 -96.38689 34930 ft 494 kts 73°
2026-04-25 00:35 39.96562 -96.30059 34929 ft 493 kts 73°
2026-04-25 00:36 39.98364 -96.21468 34932 ft 493 kts 73°
2026-04-25 00:36 40.00164 -96.12847 34932 ft 494 kts 73°
2026-04-25 00:37 40.01974 -96.04178 34922 ft 494 kts 74°
2026-04-25 00:37 40.03774 -95.95531 34925 ft 494 kts 74°
2026-04-25 00:38 40.05561 -95.86883 34927 ft 494 kts 74°
2026-04-25 00:38 40.07339 -95.78213 34933 ft 494 kts 74°